Simultaneous Nadir Overpasses (SNOs) Predictions

Prediction of SNOs between GOES-17 and LANDSAT-8 Satellite Orbit:

Table of predicted SNOs for the next 14.0 days since TLE Epoch: 12/26/2020
Index Date Time (GOES-17) GOES-17 Lat,Lon LANDSAT-8 Lat,Lon Distance(km) Time Diff (sec)
1 12/27/2020 19:20:07 -0.02,-137.23 -0.03,-137.21 2.57 80
2 12/29/2020 19:10:35 -0.02,-137.22 -0.65,-134.25 338.30 80
3 12/30/2020 07:31:59 0.02,-137.22 -0.46,-139.44 252.53 80
4 01/01/2021 07:17:07 0.02,-137.21 0.17,-136.48 82.38 80
5 01/03/2021 07:04:55 0.02,-137.19 0.80,-133.52 416.79 80
6 01/03/2021 19:26:10 -0.02,-137.18 0.32,-138.67 169.87 80
7 01/05/2021 19:16:38 -0.02,-137.16 -0.31,-135.71 164.01 80
8 01/06/2021 07:38:02 0.01,-137.15 -0.79,-140.91 427.11 80
9 01/07/2021 19:04:26 -0.01,-137.13 -0.95,-132.76 497.23 80
10 01/08/2021 07:25:50 0.01,-137.12 -0.15,-137.95 94.11 80
